Destin, Florida, United States (32540)
Lat: 30.39N, Lon: 86.5W
Wx Zone: FLZ006
Local Info
Past Weather Observations for Sunday, August 31, 2014

NOTE: This archive is for the closest National Weather Service station to Destin. Information may differ from the station used for current weather conditions.

Click here for Long-term Archive

Time Weather Temperature Dewpoint Humidity Pressure Winds Precip Visibility
23:53
Partly Cloudy
84°F / 29°C 75°F / 24°C 74% 30.06 in
(1018 mb)
Variable 5.8 mph
(Variable 9 kph)
- 10SM
22:53
Partly Cloudy
84°F / 29°C 75°F / 24°C 74% 30.09 in
(1019 mb)
Variable 4.6 mph
(Variable 7 kph)
- 10SM
21:53
Clear
86°F / 30°C 75°F / 24°C 70% 30.09 in
(1019 mb)
SSE 4.6 mph
(SSE 7 kph)
- 10SM
20:53
Clear
86°F / 30°C 75°F / 24°C 70% 30.09 in
(1019 mb)
SSE 5.8 mph
(SSE 9 kph)
- 10SM
19:53
Clear
84°F / 29°C 77°F / 25°C 79% 30.09 in
(1019 mb)
SSE 6.9 mph
(SSE 11 kph)
- 10SM
18:53
Clear
84°F / 29°C 75°F / 24°C 74% 30.06 in
(1018 mb)
SSE 4.6 mph
(SSE 7 kph)
- 10SM
17:53
Clear
88°F / 31°C 73°F / 23°C 62% 30.06 in
(1018 mb)
Calm - 10SM
16:53
Clear
88°F / 31°C 72°F / 22°C 59% 30.09 in
(1019 mb)
E 4.6 mph
(E 7 kph)
- 10SM
16:20
Mostly Cloudy
84°F / 29°C 72°F / 22°C 66% 30.09 in
(1019 mb)
ENE 5.8 mph
(ENE 9 kph)
- 10SM
16:03
Mostly Cloudy
84°F / 29°C 72°F / 22°C 66% 30.09 in
(1019 mb)
NE 9.2 mph
(NE 15 kph)
- 10SM
15:53
Partly Cloudy
90°F / 32°C 75°F / 24°C 63% 30.09 in
(1019 mb)
NNE 9.2 mph
(NNE 15 kph)
- 10SM
14:53
Clear
90°F / 32°C 75°F / 24°C 63% 30.06 in
(1018 mb)
S 8.1 mph
(S 13 kph)
- 10SM
13:53
Partly Cloudy
91°F / 33°C 79°F / 26°C 67% 30.06 in
(1018 mb)
Variable 6.9 mph
(Variable 11 kph)
- 10SM
12:53
Clear
90°F / 32°C 79°F / 26°C 71% 30.09 in
(1019 mb)
SSE 11.5 mph
(SSE 19 kph)
- 10SM
11:53
Clear
90°F / 32°C 79°F / 26°C 71% 30.12 in
(1020 mb)
SSE 9.2 mph
(SSE 15 kph)
- 10SM
10:53
Clear
90°F / 32°C 79°F / 26°C 71% 30.12 in
(1020 mb)
SSE 8.1 mph
(SSE 13 kph)
- 10SM
09:53
Clear
90°F / 32°C 79°F / 26°C 71% 30.12 in
(1020 mb)
SSE 9.2 mph
(SSE 15 kph)
- 10SM
08:53
Clear
88°F / 31°C 75°F / 24°C 66% 30.12 in
(1020 mb)
SE 9.2 mph
(SE 15 kph)
- 10SM
07:53
Clear
86°F / 30°C 79°F / 26°C 79% 30.12 in
(1020 mb)
E 5.8 mph
(E 9 kph)
- 10SM
06:53
Clear
84°F / 29°C 75°F / 24°C 74% 30.12 in
(1020 mb)
E 4.6 mph
(E 7 kph)
- 10SM
05:53
Partly Cloudy
82°F / 28°C 79°F / 26°C 89% 30.12 in
(1020 mb)
E 4.6 mph
(E 7 kph)
- 10SM
04:53
Partly Cloudy
84°F / 29°C 79°F / 26°C 84% 30.09 in
(1019 mb)
SSE 4.6 mph
(SSE 7 kph)
- 10SM
03:53
Partly Cloudy
84°F / 29°C 79°F / 26°C 84% 30.06 in
(1018 mb)
SE 6.9 mph
(SE 11 kph)
- 10SM
02:53
Partly Cloudy
84°F / 29°C 79°F / 26°C 84% 30.06 in
(1018 mb)
SSE 3.5 mph
(SSE 6 kph)
- 10SM
01:53
Partly Cloudy
84°F / 29°C 79°F / 26°C 84% 30.09 in
(1019 mb)
SSE 6.9 mph
(SSE 11 kph)
- 10SM
00:53
Partly Cloudy
84°F / 29°C 79°F / 26°C 84% 30.09 in
(1019 mb)
SE 6.9 mph
(SE 11 kph)
- 10SM
00:00
Partly Cloudy
86°F / 30°C 79°F / 26°C 79% 30.09 in
(1019 mb)
SSE 5.8 mph
(SSE 9 kph)
- 10SM
Time Weather Temperature Dewpoint Humidity Pressure Winds Precip Visibility


Weather for websites

WeatherForYou.com, LLC is not responsible for any damages or problems caused by this service. Current weather conditions are obtained from the closest station including government and personal stations which may have varying degrees of accuracy. Weather forecasts are derived from the NOAA NDFD. Like all things, this site belongs to Jesus Christ... He just trusts me to maintain it. If you have any questions or comments email webmaster@weatherforyou.com

Copyright © 2014, WeatherForYou.com LLC. All rights reserved.